Year,Month,Day,Hour,Minute,Value (Times are PST for temperature in C)
2015,06,27,00,00,19.40
2015,06,27,00,01,19.40
2015,06,27,00,02,19.40
2015,06,27,00,03,19.40
2015,06,27,00,04,19.40
2015,06,27,00,05,19.30
2015,06,27,00,06,19.30
2015,06,27,00,07,19.30
2015,06,27,00,08,19.30
2015,06,27,00,09,19.30
2015,06,27,00,10,19.30
2015,06,27,00,11,19.30
2015,06,27,00,12,19.20
2015,06,27,00,13,19.20
2015,06,27,00,14,19.20
2015,06,27,00,15,19.20
2015,06,27,00,16,19.20
2015,06,27,00,17,19.20
2015,06,27,00,18,19.20
2015,06,27,00,19,19.10
2015,06,27,00,20,19.10
2015,06,27,00,21,19.10
2015,06,27,00,22,19.10
2015,06,27,00,23,19.10
2015,06,27,00,24,19.00
2015,06,27,00,25,19.00
2015,06,27,00,26,19.00
2015,06,27,00,27,19.00
2015,06,27,00,28,19.00
2015,06,27,00,29,19.00
2015,06,27,00,30,19.00
2015,06,27,00,31,19.10
2015,06,27,00,32,19.10
2015,06,27,00,33,19.10
2015,06,27,00,34,19.10
2015,06,27,00,35,19.20
2015,06,27,00,36,19.20
2015,06,27,00,37,19.20
2015,06,27,00,38,19.20
2015,06,27,00,39,19.20
2015,06,27,00,40,19.20
2015,06,27,00,41,19.20
2015,06,27,00,42,19.30
2015,06,27,00,43,19.30
2015,06,27,00,44,19.30
2015,06,27,00,45,19.30
2015,06,27,00,46,19.40
2015,06,27,00,47,19.40
2015,06,27,00,48,19.40
2015,06,27,00,49,19.40
2015,06,27,00,50,19.40
2015,06,27,00,51,19.30
2015,06,27,00,52,19.30
2015,06,27,00,53,19.30
2015,06,27,00,54,19.30
2015,06,27,00,55,19.20
2015,06,27,00,56,19.20
2015,06,27,00,57,19.20
2015,06,27,00,58,19.20
2015,06,27,00,59,19.10
2015,06,27,01,00,19.10
2015,06,27,01,01,19.10
2015,06,27,01,02,19.10
2015,06,27,01,03,19.00
2015,06,27,01,04,19.00
2015,06,27,01,05,19.00
2015,06,27,01,06,18.90
2015,06,27,01,07,18.90
2015,06,27,01,08,18.90
2015,06,27,01,09,18.90
2015,06,27,01,10,18.80
2015,06,27,01,11,18.80
2015,06,27,01,12,18.80
2015,06,27,01,13,18.70
2015,06,27,01,14,18.70
2015,06,27,01,15,18.70
2015,06,27,01,16,18.60
2015,06,27,01,17,18.60
2015,06,27,01,18,18.60
2015,06,27,01,19,18.60
2015,06,27,01,20,18.60
2015,06,27,01,21,18.60
2015,06,27,01,22,18.60
2015,06,27,01,23,18.60
2015,06,27,01,24,18.60
2015,06,27,01,25,18.60
2015,06,27,01,26,18.70
2015,06,27,01,27,18.70
2015,06,27,01,28,18.70
2015,06,27,01,29,18.70
2015,06,27,01,30,18.80
2015,06,27,01,31,18.80
2015,06,27,01,32,18.80
2015,06,27,01,33,18.80
2015,06,27,01,34,18.80
2015,06,27,01,35,18.80
2015,06,27,01,36,18.80
2015,06,27,01,37,18.80
2015,06,27,01,38,18.80
2015,06,27,01,39,18.80
2015,06,27,01,40,18.80
2015,06,27,01,41,18.70
2015,06,27,01,42,18.70
2015,06,27,01,43,18.70
2015,06,27,01,44,18.70
2015,06,27,01,45,18.70
2015,06,27,01,46,18.60
2015,06,27,01,47,18.60
2015,06,27,01,48,18.60
2015,06,27,01,49,18.60
2015,06,27,01,50,18.60
2015,06,27,01,51,18.50
2015,06,27,01,52,18.50
2015,06,27,01,53,18.50
2015,06,27,01,54,18.50
2015,06,27,01,55,18.50
2015,06,27,01,56,18.50
2015,06,27,01,57,18.50
2015,06,27,01,58,18.50
2015,06,27,01,59,18.50
2015,06,27,02,00,18.50
2015,06,27,02,01,18.40
2015,06,27,02,02,18.40
2015,06,27,02,03,18.40
2015,06,27,02,04,18.40
2015,06,27,02,05,18.30
2015,06,27,02,06,18.30
2015,06,27,02,07,18.30
2015,06,27,02,08,18.20
2015,06,27,02,09,18.20
2015,06,27,02,10,18.20
2015,06,27,02,11,18.20
2015,06,27,02,12,18.10
2015,06,27,02,13,18.10
2015,06,27,02,14,18.10
2015,06,27,02,15,18.10
2015,06,27,02,16,18.00
2015,06,27,02,17,18.00
2015,06,27,02,18,18.00
2015,06,27,02,19,18.00
2015,06,27,02,20,18.00
2015,06,27,02,21,17.90
2015,06,27,02,22,17.90
2015,06,27,02,23,17.90
2015,06,27,02,24,17.90
2015,06,27,02,25,17.90
2015,06,27,02,26,17.90
2015,06,27,02,27,17.90
2015,06,27,02,28,17.90
2015,06,27,02,29,17.90
2015,06,27,02,30,17.90
2015,06,27,02,31,17.90
2015,06,27,02,32,17.90
2015,06,27,02,33,17.90
2015,06,27,02,34,18.00
2015,06,27,02,35,17.90
2015,06,27,02,36,18.00
2015,06,27,02,37,18.00
2015,06,27,02,38,18.00
2015,06,27,02,39,17.90
2015,06,27,02,40,17.90
2015,06,27,02,41,17.90
2015,06,27,02,42,17.90
2015,06,27,02,43,17.90
2015,06,27,02,44,17.90
2015,06,27,02,45,17.80
2015,06,27,02,46,17.80
2015,06,27,02,47,17.80
2015,06,27,02,48,17.80
2015,06,27,02,49,17.80
2015,06,27,02,50,17.80
2015,06,27,02,51,17.80
2015,06,27,02,52,17.80
2015,06,27,02,53,17.80
2015,06,27,02,54,17.80
2015,06,27,02,55,17.80
2015,06,27,02,56,17.80
2015,06,27,02,57,17.80
2015,06,27,02,58,17.80
2015,06,27,02,59,17.80
2015,06,27,03,00,17.80
2015,06,27,03,01,17.70
2015,06,27,03,02,17.70
2015,06,27,03,03,17.70
2015,06,27,03,04,17.70
2015,06,27,03,05,17.70
2015,06,27,03,06,17.70
2015,06,27,03,07,17.60
2015,06,27,03,08,17.60
2015,06,27,03,09,17.60
2015,06,27,03,10,17.50
2015,06,27,03,11,17.40
2015,06,27,03,12,17.40
2015,06,27,03,13,17.40
2015,06,27,03,14,17.40
2015,06,27,03,15,17.30
2015,06,27,03,16,17.30
2015,06,27,03,17,17.30
2015,06,27,03,18,17.30
2015,06,27,03,19,17.30
2015,06,27,03,20,17.30
2015,06,27,03,21,17.30
2015,06,27,03,22,17.30
2015,06,27,03,23,17.30
2015,06,27,03,24,17.30
2015,06,27,03,25,17.30
2015,06,27,03,26,17.30
2015,06,27,03,27,17.30
2015,06,27,03,28,17.30
2015,06,27,03,29,17.20
2015,06,27,03,30,17.20
2015,06,27,03,31,17.20
2015,06,27,03,32,17.20
2015,06,27,03,33,17.10
2015,06,27,03,34,17.10
2015,06,27,03,35,17.10
2015,06,27,03,36,17.10
2015,06,27,03,37,17.00
2015,06,27,03,38,17.00
2015,06,27,03,39,17.00
2015,06,27,03,40,17.00
2015,06,27,03,41,17.00
2015,06,27,03,42,17.00
2015,06,27,03,43,17.00
2015,06,27,03,44,17.00
2015,06,27,03,45,17.00
2015,06,27,03,46,17.00
2015,06,27,03,47,17.00
2015,06,27,03,48,17.00
2015,06,27,03,49,16.90
2015,06,27,03,50,16.90
2015,06,27,03,51,16.90
2015,06,27,03,52,16.90
2015,06,27,03,53,16.90
2015,06,27,03,54,16.80
2015,06,27,03,55,16.80
2015,06,27,03,56,16.80
2015,06,27,03,57,16.80
2015,06,27,03,58,16.80
2015,06,27,03,59,16.80
2015,06,27,04,00,16.80
2015,06,27,04,01,16.80
2015,06,27,04,02,16.80
2015,06,27,04,03,16.80
2015,06,27,04,04,16.80
2015,06,27,04,05,16.80
2015,06,27,04,06,16.80
2015,06,27,04,07,16.80
2015,06,27,04,08,16.80
2015,06,27,04,09,16.80
2015,06,27,04,10,16.80
2015,06,27,04,11,16.80
2015,06,27,04,12,16.80
2015,06,27,04,13,16.80
2015,06,27,04,14,16.90
2015,06,27,04,15,16.90
2015,06,27,04,16,16.90
2015,06,27,04,17,16.90
2015,06,27,04,18,16.90
2015,06,27,04,19,16.90
2015,06,27,04,20,16.90
2015,06,27,04,21,16.90
2015,06,27,04,22,16.90
2015,06,27,04,23,16.90
2015,06,27,04,24,16.90
2015,06,27,04,25,16.90
2015,06,27,04,26,16.90
2015,06,27,04,27,16.90
2015,06,27,04,28,16.90
2015,06,27,04,29,16.90
2015,06,27,04,30,16.90
2015,06,27,04,31,16.80
2015,06,27,04,32,16.80
2015,06,27,04,33,16.80
2015,06,27,04,34,16.80
2015,06,27,04,35,16.80
2015,06,27,04,36,16.80
2015,06,27,04,37,16.70
2015,06,27,04,38,16.70
2015,06,27,04,39,16.70
2015,06,27,04,40,16.70
2015,06,27,04,41,16.70
2015,06,27,04,42,16.60
2015,06,27,04,43,16.60
2015,06,27,04,44,16.60
2015,06,27,04,45,16.60
2015,06,27,04,46,16.60
2015,06,27,04,47,16.60
2015,06,27,04,48,16.50
2015,06,27,04,49,16.50
2015,06,27,04,50,16.50
2015,06,27,04,51,16.50
2015,06,27,04,52,16.40
2015,06,27,04,53,16.40
2015,06,27,04,54,16.40
2015,06,27,04,55,16.40
2015,06,27,04,56,16.40
2015,06,27,04,57,16.30
2015,06,27,04,58,16.30
2015,06,27,04,59,16.30
2015,06,27,05,00,16.30
2015,06,27,05,01,16.30
2015,06,27,05,02,16.30
2015,06,27,05,03,16.30
2015,06,27,05,04,16.20
2015,06,27,05,05,16.20
2015,06,27,05,06,16.20
2015,06,27,05,07,16.20
2015,06,27,05,08,16.20
2015,06,27,05,09,16.20
2015,06,27,05,10,16.20
2015,06,27,05,11,16.20
2015,06,27,05,12,16.20
2015,06,27,05,13,16.20
2015,06,27,05,14,16.20
2015,06,27,05,15,16.20
2015,06,27,05,16,16.20
2015,06,27,05,17,16.20
2015,06,27,05,18,16.20
2015,06,27,05,19,16.10
2015,06,27,05,20,16.10
2015,06,27,05,21,16.10
2015,06,27,05,22,16.10
2015,06,27,05,23,16.10
2015,06,27,05,24,16.20
2015,06,27,05,25,16.10
2015,06,27,05,26,16.20
2015,06,27,05,27,16.20
2015,06,27,05,28,16.20
2015,06,27,05,29,16.20
2015,06,27,05,30,16.20
2015,06,27,05,31,16.20
2015,06,27,05,32,16.20
2015,06,27,05,33,16.20
2015,06,27,05,34,16.10
2015,06,27,05,35,16.10
2015,06,27,05,36,16.10
2015,06,27,05,37,16.10
2015,06,27,05,38,16.10
2015,06,27,05,39,16.10
2015,06,27,05,40,16.10
2015,06,27,05,41,16.10
2015,06,27,05,42,16.10
2015,06,27,05,43,16.10
2015,06,27,05,44,16.10
2015,06,27,05,45,16.10
2015,06,27,05,46,16.10
2015,06,27,05,47,16.10
2015,06,27,05,48,16.10
2015,06,27,05,49,16.10
2015,06,27,05,50,16.10
2015,06,27,05,51,16.10
2015,06,27,05,52,16.10
2015,06,27,05,53,16.10
2015,06,27,05,54,16.10
2015,06,27,05,55,16.10
2015,06,27,05,56,16.20
2015,06,27,05,57,16.20
2015,06,27,05,58,16.20
2015,06,27,05,59,16.20
2015,06,27,06,00,16.20
2015,06,27,06,01,16.20
2015,06,27,06,02,16.20
2015,06,27,06,03,16.20
2015,06,27,06,04,16.30
2015,06,27,06,05,16.30
2015,06,27,06,06,16.30
2015,06,27,06,07,16.30
2015,06,27,06,08,16.40
2015,06,27,06,09,16.40
2015,06,27,06,10,16.40
2015,06,27,06,11,16.40
2015,06,27,06,12,16.50
2015,06,27,06,13,16.50
2015,06,27,06,14,16.60
2015,06,27,06,15,16.60
2015,06,27,06,16,16.70
2015,06,27,06,17,16.70
2015,06,27,06,18,16.70
2015,06,27,06,19,16.80
2015,06,27,06,20,16.90
2015,06,27,06,21,16.90
2015,06,27,06,22,17.00
2015,06,27,06,23,17.10
2015,06,27,06,24,17.10
2015,06,27,06,25,17.20
2015,06,27,06,26,17.30
2015,06,27,06,27,17.30
2015,06,27,06,28,17.40
2015,06,27,06,29,17.50
2015,06,27,06,30,17.60
2015,06,27,06,31,17.70
2015,06,27,06,32,17.80
2015,06,27,06,33,17.80
2015,06,27,06,34,17.90
2015,06,27,06,35,18.00
2015,06,27,06,36,18.00
2015,06,27,06,37,18.10
2015,06,27,06,38,18.20
2015,06,27,06,39,18.20
2015,06,27,06,40,18.30
2015,06,27,06,41,18.30
2015,06,27,06,42,18.40
2015,06,27,06,43,18.40
2015,06,27,06,44,18.50
2015,06,27,06,45,18.50
2015,06,27,06,46,18.60
2015,06,27,06,47,18.60
2015,06,27,06,48,18.60
2015,06,27,06,49,18.70
2015,06,27,06,50,18.70
2015,06,27,06,51,18.70
2015,06,27,06,52,18.70
2015,06,27,06,53,18.80
2015,06,27,06,54,18.80
2015,06,27,06,55,18.80
2015,06,27,06,56,18.90
2015,06,27,06,57,18.90
2015,06,27,06,58,18.90
2015,06,27,06,59,19.00
2015,06,27,07,00,19.00
2015,06,27,07,01,19.10
2015,06,27,07,02,19.10
2015,06,27,07,03,19.10
2015,06,27,07,04,19.10
2015,06,27,07,05,19.20
2015,06,27,07,06,19.20
2015,06,27,07,07,19.20
2015,06,27,07,08,19.30
2015,06,27,07,09,19.30
2015,06,27,07,10,19.30
2015,06,27,07,11,19.30
2015,06,27,07,12,19.30
2015,06,27,07,13,19.40
2015,06,27,07,14,19.40
2015,06,27,07,15,19.40
2015,06,27,07,16,19.50
2015,06,27,07,17,19.50
2015,06,27,07,18,19.60
2015,06,27,07,19,19.60
2015,06,27,07,20,19.70
2015,06,27,07,21,19.70
2015,06,27,07,22,19.80
2015,06,27,07,23,19.80
2015,06,27,07,24,19.80
2015,06,27,07,25,19.90
2015,06,27,07,26,19.90
2015,06,27,07,27,19.90
2015,06,27,07,28,20.00
2015,06,27,07,29,20.00
2015,06,27,07,30,20.10
2015,06,27,07,31,20.10
2015,06,27,07,32,20.10
2015,06,27,07,33,20.20
2015,06,27,07,34,20.20
2015,06,27,07,35,20.30
2015,06,27,07,36,20.30
2015,06,27,07,37,20.30
2015,06,27,07,38,20.40
2015,06,27,07,39,20.40
2015,06,27,07,40,20.40
2015,06,27,07,41,20.50
2015,06,27,07,42,20.50
2015,06,27,07,43,20.50
2015,06,27,07,44,20.60
2015,06,27,07,45,20.60
2015,06,27,07,46,20.60
2015,06,27,07,47,20.70
2015,06,27,07,48,20.70
2015,06,27,07,49,20.80
2015,06,27,07,50,20.80
2015,06,27,07,51,20.80
2015,06,27,07,52,20.90
2015,06,27,07,53,21.00
2015,06,27,07,54,21.00
2015,06,27,07,55,21.10
2015,06,27,07,56,21.20
2015,06,27,07,57,21.30
2015,06,27,07,58,21.30
2015,06,27,07,59,21.30
2015,06,27,08,00,21.40
2015,06,27,08,01,21.40
2015,06,27,08,02,21.50
2015,06,27,08,03,21.50
2015,06,27,08,04,21.60
2015,06,27,08,05,21.70
2015,06,27,08,06,21.80
2015,06,27,08,07,21.90
2015,06,27,08,08,21.90
2015,06,27,08,09,22.00
2015,06,27,08,10,22.10
2015,06,27,08,11,22.10
2015,06,27,08,12,22.20
2015,06,27,08,13,22.20
2015,06,27,08,14,22.20
2015,06,27,08,15,22.30
2015,06,27,08,16,22.30
2015,06,27,08,17,22.40
2015,06,27,08,18,22.40
2015,06,27,08,19,22.40
2015,06,27,08,20,22.40
2015,06,27,08,21,22.40
2015,06,27,08,22,22.40
2015,06,27,08,23,22.40
2015,06,27,08,24,22.40
2015,06,27,08,25,22.50
2015,06,27,08,26,22.60
2015,06,27,08,27,22.60
2015,06,27,08,28,22.60
2015,06,27,08,29,22.50
2015,06,27,08,30,22.50
2015,06,27,08,31,22.50
2015,06,27,08,32,22.40
2015,06,27,08,33,22.50
2015,06,27,08,34,22.50
2015,06,27,08,35,22.50
2015,06,27,08,36,22.60
2015,06,27,08,37,22.60
2015,06,27,08,38,22.60
2015,06,27,08,39,22.70
2015,06,27,08,40,22.70
2015,06,27,08,41,22.70
2015,06,27,08,42,22.70
2015,06,27,08,43,22.70
2015,06,27,08,44,22.70
2015,06,27,08,45,22.80
2015,06,27,08,46,22.80
2015,06,27,08,47,22.80
2015,06,27,08,48,22.70
2015,06,27,08,49,22.70
2015,06,27,08,50,22.70
2015,06,27,08,51,22.70
2015,06,27,08,52,22.70
2015,06,27,08,53,22.70
2015,06,27,08,54,22.70
2015,06,27,08,55,22.70
2015,06,27,08,56,22.70
2015,06,27,08,57,22.80
2015,06,27,08,58,22.90
2015,06,27,08,59,22.90
2015,06,27,09,00,23.00
2015,06,27,09,01,23.10
2015,06,27,09,02,23.20
2015,06,27,09,03,23.20
2015,06,27,09,04,23.30
2015,06,27,09,05,23.30
2015,06,27,09,06,23.20
2015,06,27,09,07,23.20
2015,06,27,09,08,23.20
2015,06,27,09,09,23.20
2015,06,27,09,10,23.30
2015,06,27,09,11,23.30
2015,06,27,09,12,23.30
2015,06,27,09,13,23.30
2015,06,27,09,14,23.30
2015,06,27,09,15,23.30
2015,06,27,09,16,23.10
2015,06,27,09,17,23.00
2015,06,27,09,18,22.90
2015,06,27,09,19,22.90
2015,06,27,09,20,22.90
2015,06,27,09,21,22.90
2015,06,27,09,22,22.90
2015,06,27,09,23,23.00
2015,06,27,09,24,23.00
2015,06,27,09,25,23.10
2015,06,27,09,26,23.20
2015,06,27,09,27,23.20
2015,06,27,09,28,23.30
2015,06,27,09,29,23.30
2015,06,27,09,30,23.30
2015,06,27,09,31,23.30
2015,06,27,09,32,23.40
2015,06,27,09,33,23.50
2015,06,27,09,34,23.60
2015,06,27,09,35,23.60
2015,06,27,09,36,23.50
2015,06,27,09,37,23.50
2015,06,27,09,38,23.60
2015,06,27,09,39,23.60
2015,06,27,09,40,23.50
2015,06,27,09,41,23.50
2015,06,27,09,42,23.40
2015,06,27,09,43,23.40
2015,06,27,09,44,23.40
2015,06,27,09,45,23.40
2015,06,27,09,46,23.40
2015,06,27,09,47,23.40
2015,06,27,09,48,23.40
2015,06,27,09,49,23.40
2015,06,27,09,50,23.40
2015,06,27,09,51,23.40
2015,06,27,09,52,23.40
2015,06,27,09,53,23.30
2015,06,27,09,54,23.30
2015,06,27,09,55,23.30
2015,06,27,09,56,23.30
2015,06,27,09,57,23.30
2015,06,27,09,58,23.20
2015,06,27,09,59,23.20
2015,06,27,10,00,23.20
2015,06,27,10,01,23.20
2015,06,27,10,02,23.20
2015,06,27,10,03,23.20
2015,06,27,10,04,23.20
2015,06,27,10,05,23.20
2015,06,27,10,06,23.20
2015,06,27,10,07,23.30
2015,06,27,10,08,23.30
2015,06,27,10,09,23.40
2015,06,27,10,10,23.50
2015,06,27,10,11,23.60
2015,06,27,10,12,23.70
2015,06,27,10,13,23.70
2015,06,27,10,14,23.70
2015,06,27,10,15,23.70
2015,06,27,10,16,23.60
2015,06,27,10,17,23.60
2015,06,27,10,18,23.60
2015,06,27,10,19,23.70
2015,06,27,10,20,23.80
2015,06,27,10,21,23.80
2015,06,27,10,22,23.90
2015,06,27,10,23,24.10
2015,06,27,10,24,24.20
2015,06,27,10,25,24.30
2015,06,27,10,26,24.30
2015,06,27,10,27,24.30
2015,06,27,10,28,24.30
2015,06,27,10,29,24.30
2015,06,27,10,30,24.40
2015,06,27,10,31,24.40
2015,06,27,10,32,24.40
2015,06,27,10,33,24.30
2015,06,27,10,34,24.30
2015,06,27,10,35,24.40
2015,06,27,10,36,24.40
2015,06,27,10,37,24.50
2015,06,27,10,38,24.50
2015,06,27,10,39,24.60
2015,06,27,10,40,24.60
2015,06,27,10,41,24.60
2015,06,27,10,42,24.50
2015,06,27,10,43,24.50
2015,06,27,10,44,24.50
2015,06,27,10,45,24.60
2015,06,27,10,46,24.70
2015,06,27,10,47,24.80
2015,06,27,10,48,24.80
2015,06,27,10,49,24.80
2015,06,27,10,50,24.80
2015,06,27,10,51,24.80
2015,06,27,10,52,24.70
2015,06,27,10,53,24.60
2015,06,27,10,54,24.50
2015,06,27,10,55,24.40
2015,06,27,10,56,24.30
2015,06,27,10,57,24.30
2015,06,27,10,58,24.40
2015,06,27,10,59,24.40
2015,06,27,11,00,24.40
2015,06,27,11,01,24.40
2015,06,27,11,02,24.40
2015,06,27,11,03,24.40
2015,06,27,11,04,24.30
2015,06,27,11,05,24.40
2015,06,27,11,06,24.40
2015,06,27,11,07,24.40
2015,06,27,11,08,24.40
2015,06,27,11,09,24.50
2015,06,27,11,10,24.50
2015,06,27,11,11,24.60
2015,06,27,11,12,24.70
2015,06,27,11,13,24.80
2015,06,27,11,14,24.80
2015,06,27,11,15,24.90
2015,06,27,11,16,24.90
2015,06,27,11,17,25.10
2015,06,27,11,18,25.00
2015,06,27,11,19,24.90
2015,06,27,11,20,24.80
2015,06,27,11,21,24.70
2015,06,27,11,22,24.70
2015,06,27,11,23,24.70
2015,06,27,11,24,24.70
2015,06,27,11,25,24.60
2015,06,27,11,26,24.50
2015,06,27,11,27,24.60
2015,06,27,11,28,24.70
2015,06,27,11,29,24.70
2015,06,27,11,30,24.80
2015,06,27,11,31,24.90
2015,06,27,11,32,25.00
2015,06,27,11,33,25.10
2015,06,27,11,34,25.10
2015,06,27,11,35,25.10
2015,06,27,11,36,25.10
2015,06,27,11,37,25.10
2015,06,27,11,38,25.10
2015,06,27,11,39,25.10
2015,06,27,11,40,25.20
2015,06,27,11,41,25.20
2015,06,27,11,42,25.20
2015,06,27,11,43,25.30
2015,06,27,11,44,25.40
2015,06,27,11,45,25.50
2015,06,27,11,46,25.60
2015,06,27,11,47,25.60
2015,06,27,11,48,25.70
2015,06,27,11,49,25.70
2015,06,27,11,50,25.70
2015,06,27,11,51,25.80
2015,06,27,11,52,25.80
2015,06,27,11,53,25.80
2015,06,27,11,54,25.80
2015,06,27,11,55,25.80
2015,06,27,11,56,25.80
2015,06,27,11,57,25.80
2015,06,27,11,58,25.70
2015,06,27,11,59,25.60
2015,06,27,12,00,25.60
2015,06,27,12,01,25.60
2015,06,27,12,02,25.70
2015,06,27,12,03,25.70
2015,06,27,12,04,25.70
2015,06,27,12,05,25.70
2015,06,27,12,06,25.70
2015,06,27,12,07,25.70
2015,06,27,12,08,25.70
2015,06,27,12,09,25.70
2015,06,27,12,10,25.80
2015,06,27,12,11,25.90
2015,06,27,12,12,25.90
2015,06,27,12,13,26.00
2015,06,27,12,14,26.00
2015,06,27,12,15,26.10
2015,06,27,12,16,26.10
2015,06,27,12,17,26.20
2015,06,27,12,18,26.20
2015,06,27,12,19,26.20
2015,06,27,12,20,26.20
2015,06,27,12,21,26.10
2015,06,27,12,22,26.10
2015,06,27,12,23,26.20
2015,06,27,12,24,26.40
2015,06,27,12,25,26.50
2015,06,27,12,26,26.60
2015,06,27,12,27,26.70
2015,06,27,12,28,26.80
2015,06,27,12,29,26.80
2015,06,27,12,30,26.80
2015,06,27,12,31,26.80
2015,06,27,12,32,26.90
2015,06,27,12,33,26.90
2015,06,27,12,34,27.00
2015,06,27,12,35,27.10
2015,06,27,12,36,27.10
2015,06,27,12,37,27.10
2015,06,27,12,38,27.20
2015,06,27,12,39,27.10
2015,06,27,12,40,27.00
2015,06,27,12,41,27.00
2015,06,27,12,42,26.90
2015,06,27,12,43,26.90
2015,06,27,12,44,26.90
2015,06,27,12,45,26.90
2015,06,27,12,46,26.90
2015,06,27,12,47,27.00
2015,06,27,12,48,27.10
2015,06,27,12,49,27.10
2015,06,27,12,50,27.20
2015,06,27,12,51,27.20
2015,06,27,12,52,27.20
2015,06,27,12,53,27.30
2015,06,27,12,54,27.30
2015,06,27,12,55,27.30
2015,06,27,12,56,27.10
2015,06,27,12,57,27.10
2015,06,27,12,58,27.00
2015,06,27,12,59,27.00
2015,06,27,13,00,26.90
2015,06,27,13,01,26.90
2015,06,27,13,02,26.90
2015,06,27,13,03,27.00
2015,06,27,13,04,27.00
2015,06,27,13,05,27.10
2015,06,27,13,06,27.10
2015,06,27,13,07,27.10
2015,06,27,13,08,27.10
2015,06,27,13,09,27.20
2015,06,27,13,10,27.30
2015,06,27,13,11,27.40
2015,06,27,13,12,27.50
2015,06,27,13,13,27.50
2015,06,27,13,14,27.60
2015,06,27,13,15,27.60
2015,06,27,13,16,27.50
2015,06,27,13,17,27.30
2015,06,27,13,18,27.10
2015,06,27,13,19,27.00
2015,06,27,13,20,26.90
2015,06,27,13,21,26.80
2015,06,27,13,22,26.80
2015,06,27,13,23,26.80
2015,06,27,13,24,26.80
2015,06,27,13,25,26.70
2015,06,27,13,26,26.80
2015,06,27,13,27,26.80
2015,06,27,13,28,26.80
2015,06,27,13,29,26.70
2015,06,27,13,30,26.70
2015,06,27,13,31,26.80
2015,06,27,13,32,26.90
2015,06,27,13,33,27.00
2015,06,27,13,34,27.10
2015,06,27,13,35,27.30
2015,06,27,13,36,27.50
2015,06,27,13,37,27.60
2015,06,27,13,38,27.60
2015,06,27,13,39,27.60
2015,06,27,13,40,27.50
2015,06,27,13,41,27.50
2015,06,27,13,42,27.50
2015,06,27,13,43,27.50
2015,06,27,13,44,27.70
2015,06,27,13,45,27.80
2015,06,27,13,46,27.90
2015,06,27,13,47,28.00
2015,06,27,13,48,28.00
2015,06,27,13,49,28.10
2015,06,27,13,50,28.10
2015,06,27,13,51,28.20
2015,06,27,13,52,28.20
2015,06,27,13,53,28.30
2015,06,27,13,54,28.40
2015,06,27,13,55,28.50
2015,06,27,13,56,28.40
2015,06,27,13,57,28.30
2015,06,27,13,58,28.20
2015,06,27,13,59,28.10
2015,06,27,14,00,27.90
2015,06,27,14,01,27.90
2015,06,27,14,02,27.80
2015,06,27,14,03,27.70
2015,06,27,14,04,27.60
2015,06,27,14,05,27.50
2015,06,27,14,06,27.50
2015,06,27,14,07,27.60
2015,06,27,14,08,27.80
2015,06,27,14,09,27.90
2015,06,27,14,10,28.10
2015,06,27,14,11,28.20
2015,06,27,14,12,28.20
2015,06,27,14,13,28.20
2015,06,27,14,14,28.20
2015,06,27,14,15,28.30
2015,06,27,14,16,28.30
2015,06,27,14,17,28.40
2015,06,27,14,18,28.40
2015,06,27,14,19,28.40
2015,06,27,14,20,28.40
2015,06,27,14,21,28.40
2015,06,27,14,22,28.50
2015,06,27,14,23,28.60
2015,06,27,14,24,28.70
2015,06,27,14,25,28.70
2015,06,27,14,26,28.60
2015,06,27,14,27,28.60
2015,06,27,14,28,28.70
2015,06,27,14,29,28.80
2015,06,27,14,30,28.80
2015,06,27,14,31,28.70
2015,06,27,14,32,28.80
2015,06,27,14,33,28.90
2015,06,27,14,34,29.00
2015,06,27,14,35,29.10
2015,06,27,14,36,29.30
2015,06,27,14,37,29.30
2015,06,27,14,38,29.30
2015,06,27,14,39,29.30
2015,06,27,14,40,29.20
2015,06,27,14,41,29.00
2015,06,27,14,42,28.80
2015,06,27,14,43,28.60
2015,06,27,14,44,28.50
2015,06,27,14,45,28.30
2015,06,27,14,46,28.30
2015,06,27,14,47,28.30
2015,06,27,14,48,28.30
2015,06,27,14,49,28.40
2015,06,27,14,50,28.40
2015,06,27,14,51,28.40
2015,06,27,14,52,28.40
2015,06,27,14,53,28.40
2015,06,27,14,54,28.50
2015,06,27,14,55,28.50
2015,06,27,14,56,28.50
2015,06,27,14,57,28.50
2015,06,27,14,58,28.40
2015,06,27,14,59,28.40
2015,06,27,15,00,28.40
2015,06,27,15,01,28.40
2015,06,27,15,02,28.40
2015,06,27,15,03,28.40
2015,06,27,15,04,28.40
2015,06,27,15,05,28.50
2015,06,27,15,06,28.50
2015,06,27,15,07,28.70
2015,06,27,15,08,28.70
2015,06,27,15,09,28.70
2015,06,27,15,10,28.70
2015,06,27,15,11,28.70
2015,06,27,15,12,28.70
2015,06,27,15,13,28.60
2015,06,27,15,14,28.60
2015,06,27,15,15,28.60
2015,06,27,15,16,28.70
2015,06,27,15,17,28.70
2015,06,27,15,18,28.80
2015,06,27,15,19,28.80
2015,06,27,15,20,28.80
2015,06,27,15,21,28.70
2015,06,27,15,22,28.60
2015,06,27,15,23,28.40
2015,06,27,15,24,28.40
2015,06,27,15,25,28.30
2015,06,27,15,26,28.30
2015,06,27,15,27,28.30
2015,06,27,15,28,28.30
2015,06,27,15,29,28.30
2015,06,27,15,30,28.20
2015,06,27,15,31,28.20
2015,06,27,15,32,28.20
2015,06,27,15,33,28.10
2015,06,27,15,34,28.10
2015,06,27,15,35,28.10
2015,06,27,15,36,28.00
2015,06,27,15,37,28.10
2015,06,27,15,38,28.10
2015,06,27,15,39,28.20
2015,06,27,15,40,28.20
2015,06,27,15,41,28.20
2015,06,27,15,42,28.20
2015,06,27,15,43,28.20
2015,06,27,15,44,28.20
2015,06,27,15,45,28.20
2015,06,27,15,46,28.20
2015,06,27,15,47,28.20
2015,06,27,15,48,28.30
2015,06,27,15,49,28.30
2015,06,27,15,50,28.30
2015,06,27,15,51,28.20
2015,06,27,15,52,28.20
2015,06,27,15,53,28.20
2015,06,27,15,54,28.30
2015,06,27,15,55,28.40
2015,06,27,15,56,28.40
2015,06,27,15,57,28.30
2015,06,27,15,58,28.30
2015,06,27,15,59,28.30
2015,06,27,16,00,28.20
2015,06,27,16,01,28.20
2015,06,27,16,02,28.20
2015,06,27,16,03,28.20
2015,06,27,16,04,28.20
2015,06,27,16,05,28.20
2015,06,27,16,06,28.20
2015,06,27,16,07,28.30
2015,06,27,16,08,28.40
2015,06,27,16,09,28.40
2015,06,27,16,10,28.40
2015,06,27,16,11,28.40
2015,06,27,16,12,28.30
2015,06,27,16,13,28.30
2015,06,27,16,14,28.30
2015,06,27,16,15,28.30
2015,06,27,16,16,28.40
2015,06,27,16,17,28.50
2015,06,27,16,18,28.60
2015,06,27,16,19,28.70
2015,06,27,16,20,28.90
2015,06,27,16,21,28.90
2015,06,27,16,22,29.10
2015,06,27,16,23,29.20
2015,06,27,16,24,29.30
2015,06,27,16,25,29.30
2015,06,27,16,26,29.30
2015,06,27,16,27,29.30
2015,06,27,16,28,29.40
2015,06,27,16,29,29.40
2015,06,27,16,30,29.40
2015,06,27,16,31,29.40
2015,06,27,16,32,29.40
2015,06,27,16,33,29.40
2015,06,27,16,34,29.50
2015,06,27,16,35,29.50
2015,06,27,16,36,29.60
2015,06,27,16,37,29.60
2015,06,27,16,38,29.60
2015,06,27,16,39,29.60
2015,06,27,16,40,29.60
2015,06,27,16,41,29.70
2015,06,27,16,42,29.80
2015,06,27,16,43,29.80
2015,06,27,16,44,29.80
2015,06,27,16,45,29.80
2015,06,27,16,46,29.80
2015,06,27,16,47,29.80
2015,06,27,16,48,29.80
2015,06,27,16,49,29.80
2015,06,27,16,50,29.80
2015,06,27,16,51,29.80
2015,06,27,16,52,29.80
2015,06,27,16,53,29.80
2015,06,27,16,54,29.80
2015,06,27,16,55,29.80
2015,06,27,16,56,29.80
2015,06,27,16,57,29.80
2015,06,27,16,58,29.80
2015,06,27,16,59,29.90
2015,06,27,17,00,29.90
2015,06,27,17,01,29.90
2015,06,27,17,02,29.90
2015,06,27,17,03,29.90
2015,06,27,17,04,29.90
2015,06,27,17,05,29.90
2015,06,27,17,06,29.90
2015,06,27,17,07,29.80
2015,06,27,17,08,29.90
2015,06,27,17,09,29.90
2015,06,27,17,10,29.90
2015,06,27,17,11,29.90
2015,06,27,17,12,29.90
2015,06,27,17,13,29.90
2015,06,27,17,14,29.90
2015,06,27,17,15,29.90
2015,06,27,17,16,29.90
2015,06,27,17,17,29.90
2015,06,27,17,18,30.00
2015,06,27,17,19,30.00